#Datum;Uhrzeit;WR;Pac;DaySum;Status;WR;Pac;DaySum;Status;Pdc1;Udc;Temp;WR;Pac;DaySum;Status;Pdc1;Udc;Temp;WR;Pac;DaySum;Status;Pdc1;Udc;Temp;WR;Pac;DaySum;Status;Pdc1;Pdc2;Udc1;Udc2;Temp;WR;Pac;DaySum;Status;Pdc1;Pdc2;Udc1;Udc2;Temp;WR;Pac;DaySum;Status;Pdc1;Udc;Temp;WR;Pac;DaySum;Status;Pdc1;Udc;Temp;WR;Pac;DaySum;Status;Pdc1;Udc;Temp
03.12.17;23:55:00;1;438;13655;0;2;0;2294;0;0;0;0;3;0;1362;0;0;0;0;4;0;1885;0;0;0;0;5;0;5175;0;0;0;0;0;0;6;0;3788;0;0;0;0;0;0;7;0;2374;0;0;0;0;8;0;2402;0;0;0;0;9;0;1269;0;0;0;0
03.12.17;23:50:00;1;459;13618;0;2;0;2294;0;0;0;0;3;0;1362;0;0;0;0;4;0;1885;0;0;0;0;5;0;5175;0;0;0;0;0;0;6;0;3788;0;0;0;0;0;0;7;0;2374;0;0;0;0;8;0;2402;0;0;0;0;9;0;1269;0;0;0;0
03.12.17;23:45:00;1;1131;13580;0;2;0;2294;0;0;0;0;3;0;1362;0;0;0;0;4;0;1885;0;0;0;0;5;0;5175;0;0;0;0;0;0;6;0;3788;0;0;0;0;0;0;7;0;2374;0;0;0;0;8;0;2402;0;0;0;0;9;0;1269;0;0;0;0
03.12.17;23:40:00;1;491;13514;0;2;0;2294;0;0;0;0;3;0;1362;0;0;0;0;4;0;1885;0;0;0;0;5;0;5175;0;0;0;0;0;0;6;0;3788;0;0;0;0;0;0;7;0;2374;0;0;0;0;8;0;2402;0;0;0;0;9;0;1269;0;0;0;0
03.12.17;23:35:00;1;795;13473;0;2;0;2294;0;0;0;0;3;0;1362;0;0;0;0;4;0;1885;0;0;0;0;5;0;5175;0;0;0;0;0;0;6;0;3788;0;0;0;0;0;0;7;0;2374;0;0;0;0;8;0;2402;0;0;0;0;9;0;1269;0;0;0;0
03.12.17;23:30:00;1;467;13410;0;2;0;2294;0;0;0;0;3;0;1362;0;0;0;0;4;0;1885;0;0;0;0;5;0;5175;0;0;0;0;0;0;6;0;3788;0;0;0;0;0;0;7;0;2374;0;0;0;0;8;0;2402;0;0;0;0;9;0;1269;0;0;0;0
03.12.17;23:25:00;1;392;13372;0;2;0;2294;0;0;0;0;3;0;1362;0;0;0;0;4;0;1885;0;0;0;0;5;0;5175;0;0;0;0;0;0;6;0;3788;0;0;0;0;0;0;7;0;2374;0;0;0;0;8;0;2402;0;0;0;0;9;0;1269;0;0;0;0
03.12.17;23:20:00;1;690;13339;0;2;0;2294;0;0;0;0;3;0;1362;0;0;0;0;4;0;1885;0;0;0;0;5;0;5175;0;0;0;0;0;0;6;0;3788;0;0;0;0;0;0;7;0;2374;0;0;0;0;8;0;2402;0;0;0;0;9;0;1269;0;0;0;0
03.12.17;23:15:00;1;404;13282;0;2;0;2294;0;0;0;0;3;0;1362;0;0;0;0;4;0;1885;0;0;0;0;5;0;5175;0;0;0;0;0;0;6;0;3788;0;0;0;0;0;0;7;0;2374;0;0;0;0;8;0;2402;0;0;0;0;9;0;1269;0;0;0;0
03.12.17;23:10:00;1;432;13248;0;2;0;2294;0;0;0;0;3;0;1362;0;0;0;0;4;0;1885;0;0;0;0;5;0;5175;0;0;0;0;0;0;6;0;3788;0;0;0;0;0;0;7;0;2374;0;0;0;0;8;0;2402;0;0;0;0;9;0;1269;0;0;0;0
03.12.17;23:06:00;1;2801;13221;0;2;0;2294;0;0;0;0;3;0;1362;0;0;0;0;4;0;1885;0;0;0;0;5;0;5175;0;0;0;0;0;0;6;0;3788;0;0;0;0;0;0;7;0;2374;0;0;0;0;8;0;2402;0;0;0;0;9;0;1269;0;0;0;0
03.12.17;23:00:00;1;436;13152;0;2;0;2294;0;0;0;0;3;0;1362;0;0;0;0;4;0;1885;0;0;0;0;5;0;5175;0;0;0;0;0;0;6;0;3788;0;0;0;0;0;0;7;0;2374;0;0;0;0;8;0;2402;0;0;0;0;9;0;1269;0;0;0;0
03.12.17;22:55:00;1;691;13116;0;2;0;2294;0;0;0;0;3;0;1362;0;0;0;0;4;0;1885;0;0;0;0;5;0;5175;2;0;0;0;0;0;6;0;3788;2;0;0;0;0;0;7;0;2374;0;0;0;0;8;0;2402;0;0;0;0;9;0;1269;0;0;0;0
03.12.17;22:50:00;1;394;13057;0;2;0;2294;0;0;0;0;3;0;1362;0;0;0;0;4;0;1885;0;0;0;0;5;0;5175;2;0;0;0;0;0;6;0;3788;2;0;0;0;0;0;7;0;2374;0;0;0;0;8;0;2402;0;0;0;0;9;0;1269;0;0;0;0
03.12.17;22:45:00;1;519;13024;0;2;0;2294;0;0;0;0;3;0;1362;0;0;0;0;4;0;1885;0;0;0;0;5;0;5175;2;0;0;0;0;0;6;0;3788;2;0;0;0;0;0;7;0;2374;0;0;0;0;8;0;2402;0;0;0;0;9;0;1269;0;0;0;0
03.12.17;22:40:00;1;413;12963;0;2;0;2294;0;0;0;0;3;0;1362;0;0;0;0;4;0;1885;0;0;0;0;5;0;5175;2;0;0;0;0;0;6;0;3788;2;0;0;0;0;0;7;0;2374;0;0;0;0;8;0;2402;0;0;0;0;9;0;1269;0;0;0;0
03.12.17;22:35:00;1;485;12928;0;2;0;2294;0;0;0;0;3;0;1362;0;0;0;0;4;0;1885;0;0;0;0;5;0;5175;2;0;0;0;0;0;6;0;3788;2;0;0;0;0;0;7;0;2374;0;0;0;0;8;0;2402;0;0;0;0;9;0;1269;0;0;0;0
03.12.17;22:30:00;1;709;12887;0;2;0;2294;0;0;0;0;3;0;1362;0;0;0;0;4;0;1885;0;0;0;0;5;0;5175;2;0;0;0;0;0;6;0;3788;2;0;0;0;0;0;7;0;2374;0;0;0;0;8;0;2402;0;0;0;0;9;0;1269;0;0;0;0
03.12.17;22:25:00;1;513;12815;0;2;0;2294;0;0;0;0;3;0;1362;0;0;0;0;4;0;1885;0;0;0;0;5;0;5175;2;0;0;0;0;0;6;0;3788;2;0;0;0;0;0;7;0;2374;0;0;0;0;8;0;2402;0;0;0;0;9;0;1269;0;0;0;0
03.12.17;22:20:00;1;512;12773;0;2;0;2294;0;0;0;0;3;0;1362;0;0;0;0;4;0;1885;0;0;0;0;5;0;5175;2;0;0;0;0;0;6;0;3788;2;0;0;0;0;0;7;0;2374;0;0;0;0;8;0;2402;0;0;0;0;9;0;1269;0;0;0;0
03.12.17;22:15:00;1;830;12730;0;2;0;2294;0;0;0;0;3;0;1362;0;0;0;0;4;0;1885;0;0;0;0;5;0;5175;2;0;0;0;0;0;6;0;3788;2;0;0;0;0;0;7;0;2374;0;0;0;0;8;0;2402;0;0;0;0;9;0;1269;0;0;0;0
03.12.17;22:10:00;1;538;12661;0;2;0;2294;0;0;0;0;3;0;1362;0;0;0;0;4;0;1885;0;0;0;0;5;0;5175;2;0;0;0;0;0;6;0;3788;2;0;0;0;0;0;7;0;2374;0;0;0;0;8;0;2402;0;0;0;0;9;0;1269;0;0;0;0
03.12.17;22:05:00;1;884;12616;0;2;0;2294;0;0;0;0;3;0;1362;0;0;0;0;4;0;1885;0;0;0;0;5;0;5175;2;0;0;0;0;0;6;0;3788;2;0;0;0;0;0;7;0;2374;0;0;0;0;8;0;2402;0;0;0;0;9;0;1269;0;0;0;0
03.12.17;22:00:00;1;506;12544;0;2;0;2294;0;0;0;0;3;0;1362;0;0;0;0;4;0;1885;0;0;0;0;5;0;5175;2;0;0;0;0;0;6;0;3788;2;0;0;0;0;0;7;0;2374;0;0;0;0;8;0;2402;0;0;0;0;9;0;1269;0;0;0;0
03.12.17;21:55:00;1;520;12502;0;2;0;2294;0;0;0;0;3;0;1362;0;0;0;0;4;0;1885;0;0;0;0;5;0;5175;2;0;0;0;0;0;6;0;3788;2;0;0;0;0;0;7;0;2374;0;0;0;0;8;0;2402;0;0;0;0;9;0;1269;0;0;0;0
03.12.17;21:50:00;1;566;12458;0;2;0;2294;0;0;0;0;3;0;1362;0;0;0;0;4;0;1885;0;0;0;0;5;0;5175;2;0;0;0;0;0;6;0;3788;2;0;0;0;0;0;7;0;2374;0;0;0;0;8;0;2402;0;0;0;0;9;0;1269;0;0;0;0
03.12.17;21:45:00;1;552;12386;0;2;0;2294;0;0;0;0;3;0;1362;0;0;0;0;4;0;1885;0;0;0;0;5;0;5175;2;0;0;0;0;0;6;0;3788;2;0;0;0;0;0;7;0;2374;0;0;0;0;8;0;2402;0;0;0;0;9;0;1269;0;0;0;0
03.12.17;21:40:00;1;578;12339;0;2;0;2294;0;0;0;0;3;0;1362;0;0;0;0;4;0;1885;0;0;0;0;5;0;5175;2;0;0;0;0;0;6;0;3788;2;0;0;0;0;0;7;0;2374;0;0;0;0;8;0;2402;0;0;0;0;9;0;1269;0;0;0;0
03.12.17;21:35:00;1;662;12290;0;2;0;2294;0;0;0;0;3;0;1362;0;0;0;0;4;0;1885;0;0;0;0;5;0;5175;2;0;0;0;0;0;6;0;3788;2;0;0;0;0;0;7;0;2374;0;0;0;0;8;0;2402;0;0;0;0;9;0;1269;0;0;0;0
03.12.17;21:30:00;1;585;12217;0;2;0;2294;0;0;0;0;3;0;1362;0;0;0;0;4;0;1885;0;0;0;0;5;0;5175;2;0;0;0;0;0;6;0;3788;2;0;0;0;0;0;7;0;2374;0;0;0;0;8;0;2402;0;0;0;0;9;0;1269;0;0;0;0
03.12.17;21:25:00;1;1179;12168;0;2;0;2294;0;0;0;0;3;0;1362;0;0;0;0;4;0;1885;0;0;0;0;5;0;5175;2;0;0;0;0;0;6;0;3788;2;0;0;0;0;0;7;0;2374;0;0;0;0;8;0;2402;0;0;0;0;9;0;1269;0;0;0;0
03.12.17;21:20:00;1;577;12095;0;2;0;2294;0;0;0;0;3;0;1362;0;0;0;0;4;0;1885;0;0;0;0;5;0;5175;2;0;0;0;0;0;6;0;3788;2;0;0;0;0;0;7;0;2374;0;0;0;0;8;0;2402;0;0;0;0;9;0;1269;0;0;0;0
03.12.17;21:15:00;1;546;12047;0;2;0;2294;0;0;0;0;3;0;1362;0;0;0;0;4;0;1885;0;0;0;0;5;0;5175;2;0;0;0;0;0;6;0;3788;2;0;0;0;0;0;7;0;2374;0;0;0;0;8;0;2402;0;0;0;0;9;0;1269;0;0;0;0
03.12.17;21:10:00;1;1220;12001;0;2;0;2294;0;0;0;0;3;0;1362;0;0;0;0;4;0;1885;0;0;0;0;5;0;5175;2;0;0;0;0;0;6;0;3788;2;0;0;0;0;0;7;0;2374;0;0;0;0;8;0;2402;0;0;0;0;9;0;1269;0;0;0;0
03.12.17;21:05:00;1;558;11930;0;2;0;2294;0;0;0;0;3;0;1362;0;0;0;0;4;0;1885;0;0;0;0;5;0;5175;2;0;0;0;0;0;6;0;3788;2;0;0;0;0;0;7;0;2374;0;0;0;0;8;0;2402;0;0;0;0;9;0;1269;0;0;0;0
03.12.17;21:00:00;1;857;11883;0;2;0;2294;0;0;0;0;3;0;1362;0;0;0;0;4;0;1885;0;0;0;0;5;0;5175;2;0;0;0;0;0;6;0;3788;2;0;0;0;0;0;7;0;2374;0;0;0;0;8;0;2402;0;0;0;0;9;0;1269;0;0;0;0
03.12.17;20:55:00;1;507;11815;0;2;0;2294;0;0;0;0;3;0;1362;0;0;0;0;4;0;1885;0;0;0;0;5;0;5175;2;0;0;0;0;0;6;0;3788;2;0;0;0;0;0;7;0;2374;0;0;0;0;8;0;2402;0;0;0;0;9;0;1269;0;0;0;0
03.12.17;20:50:00;1;511;11772;0;2;0;2294;0;0;0;0;3;0;1362;0;0;0;0;4;0;1885;0;0;0;0;5;0;5175;2;0;0;0;0;0;6;0;3788;2;0;0;0;0;0;7;0;2374;0;0;0;0;8;0;2402;0;0;0;0;9;0;1269;0;0;0;0
03.12.17;20:45:00;1;1110;11730;0;2;0;2294;0;0;0;0;3;0;1362;0;0;0;0;4;0;1885;0;0;0;0;5;0;5175;2;0;0;0;0;0;6;0;3788;2;0;0;0;0;0;7;0;2374;0;0;0;0;8;0;2402;0;0;0;0;9;0;1269;0;0;0;0
03.12.17;20:40:00;1;515;11664;0;2;0;2294;0;0;0;0;3;0;1362;0;0;0;0;4;0;1885;0;0;0;0;5;0;5175;2;0;0;0;0;0;6;0;3788;2;0;0;0;0;0;7;0;2374;0;0;0;0;8;0;2402;0;0;0;0;9;0;1269;0;0;0;0
03.12.17;20:35:00;1;504;11621;0;2;0;2294;0;0;0;0;3;0;1362;0;0;0;0;4;0;1885;0;0;0;0;5;0;5175;2;0;0;0;0;0;6;0;3788;2;0;0;0;0;0;7;0;2374;0;0;0;0;8;0;2402;0;0;0;0;9;0;1269;0;0;0;0
03.12.17;20:30:00;1;641;11556;0;2;0;2294;0;0;0;0;3;0;1362;0;0;0;0;4;0;1885;0;0;0;0;5;0;5175;2;0;0;0;0;0;6;0;3788;2;0;0;0;0;0;7;0;2374;0;0;0;0;8;0;2402;0;0;0;0;9;0;1269;0;0;0;0
03.12.17;20:25:00;1;521;11511;0;2;0;2294;0;0;0;0;3;0;1362;0;0;0;0;4;0;1885;0;0;0;0;5;0;5175;2;0;0;0;0;0;6;0;3788;2;0;0;0;0;0;7;0;2374;0;0;0;0;8;0;2402;0;0;0;0;9;0;1269;0;0;0;0
03.12.17;20:20:00;1;801;11468;0;2;0;2294;0;0;0;0;3;0;1362;0;0;0;0;4;0;1885;0;0;0;0;5;0;5175;2;0;0;0;0;0;6;0;3788;2;0;0;0;0;0;7;0;2374;0;0;0;0;8;0;2402;0;0;0;0;9;0;1269;0;0;0;0
03.12.17;20:15:00;1;573;11386;0;2;0;2294;0;0;0;0;3;0;1362;0;0;0;0;4;0;1885;0;0;0;0;5;0;5175;2;0;0;0;0;0;6;0;3788;2;0;0;0;0;0;7;0;2374;0;0;0;0;8;0;2402;0;0;0;0;9;0;1269;0;0;0;0
03.12.17;20:10:00;1;578;11338;0;2;0;2294;0;0;0;0;3;0;1362;0;0;0;0;4;0;1885;0;0;0;0;5;0;5175;2;0;0;0;0;0;6;0;3788;2;0;0;0;0;0;7;0;2374;0;0;0;0;8;0;2402;0;0;0;0;9;0;1269;0;0;0;0
03.12.17;20:05:00;1;907;11290;0;2;0;2294;0;0;0;0;3;0;1362;0;0;0;0;4;0;1885;0;0;0;0;5;0;5175;2;0;0;0;0;0;6;0;3788;2;0;0;0;0;0;7;0;2374;0;0;0;0;8;0;2402;0;0;0;0;9;0;1269;0;0;0;0
03.12.17;20:00:00;1;391;11212;0;2;0;2294;0;0;0;0;3;0;1362;0;0;0;0;4;0;1885;0;0;0;0;5;0;5175;2;0;0;0;0;0;6;0;3788;2;0;0;0;0;0;7;0;2374;0;0;0;0;8;0;2402;0;0;0;0;9;0;1269;0;0;0;0
03.12.17;19:55:00;1;352;11180;0;2;0;2294;0;0;0;0;3;0;1362;0;0;0;0;4;0;1885;0;0;0;0;5;0;5175;2;0;0;0;0;0;6;0;3788;2;0;0;0;0;0;7;0;2374;0;0;0;0;8;0;2402;0;0;0;0;9;0;1269;0;0;0;0
03.12.17;19:50:00;1;353;11150;0;2;0;2294;0;0;0;0;3;0;1362;0;0;0;0;4;0;1885;0;0;0;0;5;0;5175;2;0;0;0;0;0;6;0;3788;2;0;0;0;0;0;7;0;2374;0;0;0;0;8;0;2402;0;0;0;0;9;0;1269;0;0;0;0
03.12.17;19:45:00;1;400;11091;0;2;0;2294;0;0;0;0;3;0;1362;0;0;0;0;4;0;1885;0;0;0;0;5;0;5175;2;0;0;0;0;0;6;0;3788;2;0;0;0;0;0;7;0;2374;0;0;0;0;8;0;2402;0;0;0;0;9;0;1269;0;0;0;0
03.12.17;19:40:00;1;529;11056;0;2;0;2294;0;0;0;0;3;0;1362;0;0;0;0;4;0;1885;0;0;0;0;5;0;5175;2;0;0;0;0;0;6;0;3788;2;0;0;0;0;0;7;0;2374;0;0;0;0;8;0;2402;0;0;0;0;9;0;1269;0;0;0;0
03.12.17;19:35:00;1;1134;11012;0;2;0;2294;0;0;0;0;3;0;1362;0;0;0;0;4;0;1885;0;0;0;0;5;0;5175;2;0;0;0;0;0;6;0;3788;2;0;0;0;0;0;7;0;2374;0;0;0;0;8;0;2402;0;0;0;0;9;0;1269;0;0;0;0
03.12.17;19:30:00;1;662;10937;0;2;0;2294;0;0;0;0;3;0;1362;0;0;0;0;4;0;1885;0;0;0;0;5;0;5175;2;0;0;0;0;0;6;0;3788;2;0;0;0;0;0;7;0;2374;0;0;0;0;8;0;2402;0;0;0;0;9;0;1269;0;0;0;0
03.12.17;19:25:00;1;663;10882;0;2;0;2294;0;0;0;0;3;0;1362;0;0;0;0;4;0;1885;0;0;0;0;5;0;5175;2;0;0;0;0;0;6;0;3788;2;0;0;0;0;0;7;0;2374;0;0;0;0;8;0;2402;0;0;0;0;9;0;1269;0;0;0;0
03.12.17;19:20:00;1;771;10826;0;2;0;2294;0;0;0;0;3;0;1362;0;0;0;0;4;0;1885;0;0;0;0;5;0;5175;2;0;0;0;0;0;6;0;3788;2;0;0;0;0;0;7;0;2374;0;0;0;0;8;0;2402;0;0;0;0;9;0;1269;0;0;0;0
03.12.17;19:15:00;1;592;10740;0;2;0;2294;0;0;0;0;3;0;1362;0;0;0;0;4;0;1885;0;0;0;0;5;0;5175;2;0;0;0;0;0;6;0;3788;2;0;0;0;0;0;7;0;2374;0;0;0;0;8;0;2402;0;0;0;0;9;0;1269;0;0;0;0
03.12.17;19:10:00;1;538;10690;0;2;0;2294;0;0;0;0;3;0;1362;0;0;0;0;4;0;1885;0;0;0;0;5;0;5175;2;0;0;0;0;0;6;0;3788;2;0;0;0;0;0;7;0;2374;0;0;0;0;8;0;2402;0;0;0;0;9;0;1269;0;0;0;0
03.12.17;19:05:00;1;989;10643;0;2;0;2294;0;0;0;0;3;0;1362;0;0;0;0;4;0;1885;0;0;0;0;5;0;5175;2;0;0;0;0;0;6;0;3788;2;0;0;0;0;0;7;0;2374;0;0;0;0;8;0;2402;0;0;0;0;9;0;1269;0;0;0;0
03.12.17;19:00:00;1;556;10564;0;2;0;2294;0;0;0;0;3;0;1362;0;0;0;0;4;0;1885;0;0;0;0;5;0;5175;2;0;0;0;0;0;6;0;3788;2;0;0;0;0;0;7;0;2374;0;0;0;0;8;0;2402;0;0;0;0;9;0;1269;0;0;0;0
03.12.17;18:55:00;1;555;10517;0;2;0;2294;0;0;0;0;3;0;1362;0;0;0;0;4;0;1885;0;0;0;0;5;0;5175;2;0;0;0;0;0;6;0;3788;2;0;0;0;0;0;7;0;2374;0;0;0;0;8;0;2402;0;0;0;0;9;0;1269;0;0;0;0
03.12.17;18:50:00;1;893;10471;0;2;0;2294;0;0;0;0;3;0;1362;0;0;0;0;4;0;1885;0;0;0;0;5;0;5175;2;0;0;0;0;0;6;0;3788;2;0;0;0;0;0;7;0;2374;0;0;0;0;8;0;2402;0;0;0;0;9;0;1269;0;0;0;0
03.12.17;18:45:00;1;554;10393;0;2;0;2294;0;0;0;0;3;0;1362;0;0;0;0;4;0;1885;0;0;0;0;5;0;5175;2;0;0;0;0;0;6;0;3788;2;0;0;0;0;0;7;0;2374;0;0;0;0;8;0;2402;0;0;0;0;9;0;1269;0;0;0;0
03.12.17;18:40:00;1;891;10347;0;2;0;2294;0;0;0;0;3;0;1362;0;0;0;0;4;0;1885;0;0;0;0;5;0;5175;2;0;0;0;0;0;6;0;3788;2;0;0;0;0;0;7;0;2374;0;0;0;0;8;0;2402;0;0;0;0;9;0;1269;0;0;0;0
03.12.17;18:35:00;1;553;10276;0;2;0;2294;0;0;0;0;3;0;1362;0;0;0;0;4;0;1885;0;0;0;0;5;0;5175;2;0;0;0;0;0;6;0;3788;2;0;0;0;0;0;7;0;2374;0;0;0;0;8;0;2402;0;0;0;0;9;0;1269;0;0;0;0
03.12.17;18:30:00;1;550;10230;0;2;0;2294;0;0;0;0;3;0;1362;0;0;0;0;4;0;1885;0;0;0;0;5;0;5175;2;0;0;0;0;0;6;0;3788;2;0;0;0;0;0;7;0;2374;0;0;0;0;8;0;2402;0;0;0;0;9;0;1269;0;0;0;0
03.12.17;18:25:00;1;581;10184;0;2;0;2294;0;0;0;0;3;0;1362;0;0;0;0;4;0;1885;0;0;0;0;5;0;5175;2;0;0;0;0;0;6;0;3788;2;0;0;0;0;0;7;0;2374;0;0;0;0;8;0;2402;0;0;0;0;9;0;1269;0;0;0;0
03.12.17;18:20:00;1;573;10107;0;2;0;2294;0;0;0;0;3;0;1362;0;0;0;0;4;0;1885;0;0;0;0;5;0;5175;2;0;0;0;0;0;6;0;3788;2;0;0;0;0;0;7;0;2374;0;0;0;0;8;0;2402;0;0;0;0;9;0;1269;0;0;0;0
03.12.17;18:15:00;1;565;10060;0;2;0;2294;0;0;0;0;3;0;1362;0;0;0;0;4;0;1885;0;0;0;0;5;0;5175;2;0;0;0;0;0;6;0;3788;2;0;0;0;0;0;7;0;2374;0;0;0;0;8;0;2402;0;0;0;0;9;0;1269;0;0;0;0
03.12.17;18:10:00;1;587;9987;0;2;0;2294;0;0;0;0;3;0;1362;0;0;0;0;4;0;1885;0;0;0;0;5;0;5175;2;0;0;0;0;0;6;0;3788;2;0;0;0;0;0;7;0;2374;0;0;0;0;8;0;2402;0;0;0;0;9;0;1269;0;0;0;0
03.12.17;18:05:00;1;556;9939;0;2;0;2294;0;0;0;0;3;0;1362;0;0;0;0;4;0;1885;0;0;0;0;5;0;5175;2;0;0;0;0;0;6;0;3788;2;0;0;0;0;0;7;0;2374;0;0;0;0;8;0;2402;0;0;0;0;9;0;1269;0;0;0;0
03.12.17;18:00:00;1;884;9893;0;2;0;2294;0;0;0;0;3;0;1362;0;0;0;0;4;0;1885;0;0;0;0;5;0;5175;2;0;0;0;0;0;6;0;3788;2;0;0;0;0;0;7;0;2374;0;0;0;0;8;0;2402;0;0;0;0;9;0;1269;0;0;0;0
03.12.17;17:55:00;1;550;9817;0;2;0;2294;0;0;0;0;3;0;1362;0;0;0;0;4;0;1885;0;0;0;0;5;0;5175;2;0;0;0;0;0;6;0;3788;2;0;0;0;0;0;7;0;2374;0;0;0;0;8;0;2402;0;0;0;0;9;0;1269;0;0;0;0
03.12.17;17:50:00;1;553;9771;0;2;0;2294;0;0;0;0;3;0;1362;0;0;0;0;4;0;1885;0;0;0;0;5;0;5175;2;0;0;0;0;0;6;0;3788;2;0;0;0;0;0;7;0;2374;0;0;0;0;8;0;2402;0;0;0;0;9;0;1269;0;0;0;0
03.12.17;17:45:00;1;555;9725;0;2;0;2294;0;0;0;0;3;0;1362;0;0;0;0;4;0;1885;0;0;0;0;5;0;5175;2;0;0;0;0;0;6;0;3788;2;0;0;0;0;0;7;0;2374;0;0;0;0;8;0;2402;0;0;0;0;9;0;1269;0;0;0;0
03.12.17;17:40:00;1;551;9654;0;2;0;2294;0;0;0;0;3;0;1362;0;0;0;0;4;0;1885;0;0;0;0;5;0;5175;2;0;0;0;0;0;6;0;3788;2;0;0;0;0;0;7;0;2374;0;0;0;0;8;0;2402;0;0;0;0;9;0;1269;0;0;0;0
03.12.17;17:35:00;1;842;9608;0;2;0;2294;0;0;0;0;3;0;1362;0;0;0;0;4;0;1885;0;0;0;0;5;0;5175;2;0;0;0;0;0;6;0;3788;2;0;0;0;0;0;7;0;2374;0;0;0;0;8;0;2402;0;0;0;0;9;0;1269;0;0;0;0
03.12.17;17:30:00;1;562;9538;0;2;0;2294;0;0;0;0;3;0;1362;0;0;0;0;4;0;1885;0;0;0;0;5;0;5175;2;0;0;0;0;0;6;0;3788;2;0;0;0;0;0;7;0;2374;0;0;0;0;8;0;2402;0;0;0;0;9;0;1269;0;0;0;0
03.12.17;17:25:00;1;650;9491;0;2;0;2294;0;0;0;0;3;0;1362;0;0;0;0;4;0;1885;0;0;0;0;5;0;5175;2;0;0;0;0;0;6;0;3788;2;0;0;0;0;0;7;0;2374;0;0;0;0;8;0;2402;0;0;0;0;9;0;1269;0;0;0;0
03.12.17;17:20:00;1;1329;9437;0;2;0;2294;0;0;0;0;3;0;1362;0;0;0;0;4;0;1885;0;0;0;0;5;0;5175;2;0;0;0;0;0;6;0;3788;2;0;0;0;0;0;7;0;2374;0;0;0;0;8;0;2402;0;0;0;0;9;0;1269;0;0;0;0
03.12.17;17:15:00;1;658;9358;0;2;0;2294;0;0;0;0;3;0;1362;0;0;0;0;4;0;1885;0;0;0;0;5;0;5175;2;0;0;0;0;0;6;0;3788;2;0;0;0;0;0;7;0;2374;0;0;0;0;8;0;2402;0;0;0;0;9;0;1269;0;0;0;0
03.12.17;17:10:00;1;650;9303;0;2;0;2294;0;0;0;0;3;0;1362;0;0;0;0;4;0;1885;0;0;0;0;5;0;5175;2;0;0;0;0;0;6;0;3788;2;0;0;0;0;0;7;0;2374;0;0;0;0;8;0;2402;0;0;0;0;9;0;1269;0;0;0;0
03.12.17;17:05:00;1;618;9226;0;2;0;2294;0;0;0;0;3;0;1362;0;0;0;0;4;0;1885;0;0;0;0;5;0;5175;2;0;0;0;0;0;6;0;3788;2;0;0;0;0;0;7;0;2374;0;0;0;0;8;0;2402;0;0;0;0;9;0;1269;0;0;0;0
03.12.17;17:00:00;1;614;9174;0;2;0;2294;0;0;0;0;3;0;1362;0;0;0;0;4;0;1885;0;0;0;0;5;0;5175;2;0;0;0;0;0;6;0;3788;2;0;0;0;0;0;7;0;2374;0;0;0;0;8;0;2402;0;0;0;0;9;0;1269;0;0;0;0
03.12.17;16:55:00;1;1160;9123;0;2;0;2294;0;0;0;0;3;0;1362;0;0;0;0;4;0;1885;0;0;0;0;5;0;5175;2;0;0;0;0;0;6;0;3788;2;0;0;0;0;0;7;0;2374;0;0;0;0;8;0;2402;0;0;0;0;9;0;1269;0;0;0;0
03.12.17;16:50:00;1;559;9044;0;2;0;2294;0;0;0;0;3;0;1362;0;0;0;0;4;0;1885;0;0;0;0;5;0;5175;2;0;0;0;0;0;6;0;3788;2;0;0;0;0;0;7;0;2374;0;0;0;0;8;0;2402;0;0;0;0;9;0;1269;0;0;0;0
03.12.17;16:45:00;1;544;8998;0;2;0;2294;0;0;0;0;3;0;1362;0;0;0;0;4;0;1885;0;0;0;0;5;0;5175;2;0;0;0;0;0;6;0;3788;2;0;0;0;0;0;7;0;2374;0;0;0;0;8;0;2402;0;0;0;0;9;0;1269;0;0;0;0
03.12.17;16:40:00;1;1210;8952;0;2;0;2294;0;0;0;0;3;0;1362;0;0;0;0;4;0;1885;0;0;0;0;5;0;5175;2;0;0;0;0;0;6;0;3788;2;0;0;0;0;0;7;0;2374;0;0;0;0;8;0;2402;0;0;0;0;9;0;1269;0;0;0;0
03.12.17;16:35:00;1;479;8878;0;2;0;2294;0;0;0;0;3;0;1362;0;0;0;0;4;0;1885;0;0;0;0;5;0;5175;2;0;0;0;0;0;6;0;3788;2;0;0;0;0;0;7;0;2374;0;0;0;0;8;0;2402;0;0;0;0;9;0;1269;0;0;0;0
03.12.17;16:30:00;1;474;8839;0;2;0;2294;0;0;0;0;3;0;1362;0;0;35;1;4;0;1885;0;0;0;0;5;0;5175;2;0;0;0;0;0;6;0;3788;2;0;0;0;0;0;7;0;2374;0;0;0;0;8;0;2402;0;0;0;0;9;0;1269;0;0;0;0
03.12.17;16:25:00;1;517;8799;0;2;0;2294;0;0;185;5;3;0;1362;6;0;284;11;4;0;1885;0;0;0;0;5;0;5175;2;0;0;0;0;0;6;0;3788;2;0;0;0;0;0;7;0;2374;0;0;0;0;8;0;2402;0;0;0;0;9;0;1269;0;0;0;0
03.12.17;16:20:00;1;514;8730;0;2;0;2294;6;0;290;8;3;0;1362;6;0;313;11;4;0;1885;0;0;23;1;5;0;5175;2;0;0;0;0;0;6;0;3788;2;0;0;0;0;0;7;0;2374;0;0;0;0;8;0;2402;0;0;0;0;9;0;1269;0;0;0;0
03.12.17;16:15:00;1;861;8687;0;2;0;2294;6;0;311;8;3;0;1362;6;0;364;11;4;0;1885;2;0;82;5;5;0;5175;2;0;0;47;47;2;6;0;3788;2;0;0;0;0;1;7;0;2374;0;0;0;0;8;0;2402;0;0;0;0;9;0;1269;0;0;0;0
03.12.17;16:10:00;1;477;8615;0;2;0;2294;6;0;334;8;3;0;1362;6;0;406;11;4;0;1885;1;0;102;5;5;0;5175;1;0;6;277;274;17;6;0;3788;2;3;1;89;148;10;7;0;2374;0;0;0;0;8;0;2402;0;0;0;0;9;0;1269;0;0;0;0
03.12.17;16:05:00;1;473;8575;0;2;0;2294;6;0;352;8;3;0;1362;6;0;419;11;4;0;1885;1;0;120;5;5;0;5175;23;0;0;380;441;18;6;0;3788;23;6;4;180;471;16;7;0;2374;0;0;84;3;8;0;2402;0;0;85;3;9;0;1269;6;0;266;7
03.12.17;16:00:00;1;936;8535;0;2;0;2294;6;0;383;8;3;0;1362;6;2;457;11;4;0;1885;1;0;168;5;5;3;5175;1;0;1;411;603;18;6;0;3788;23;5;5;263;475;17;7;0;2374;6;0;323;10;8;0;2402;6;0;329;10;9;0;1269;6;0;349;7
03.12.17;15:55:00;1;470;8472;0;2;0;2294;6;0;396;8;3;0;1362;6;1;479;12;4;0;1885;1;0;196;6;5;6;5174;1;1;3;417;648;18;6;0;3788;23;2;5;529;247;17;7;0;2374;6;0;374;10;8;0;2402;6;0;382;10;9;0;1269;6;0;408;7
03.12.17;15:50:00;1;474;8432;0;2;0;2294;6;0;399;8;3;1;1362;3;6;449;12;4;0;1885;1;0;203;6;5;14;5174;1;2;4;410;632;19;6;0;3788;23;5;3;215;581;17;7;0;2374;6;0;396;10;8;0;2402;6;0;404;10;9;0;1269;3;0;407;7
03.12.17;15:45:00;1;473;8393;0;2;0;2294;6;0;405;8;3;0;1362;6;3;491;12;4;0;1885;1;0;213;6;5;7;5173;1;1;3;424;669;19;6;0;3788;23;6;4;433;587;18;7;0;2374;6;0;396;11;8;0;2402;6;0;405;10;9;0;1269;6;0;435;7
03.12.17;15:40:00;1;475;8329;0;2;0;2294;6;0;414;9;3;1;1362;6;3;501;12;4;0;1885;3;0;207;6;5;40;5172;1;10;12;405;637;20;6;0;3788;23;5;5;501;596;18;7;0;2374;6;1;425;11;8;0;2402;6;3;411;10;9;0;1269;6;0;465;7
03.12.17;15:35:00;1;871;8289;0;2;1;2294;6;4;409;9;3;3;1362;6;9;486;12;4;0;1885;1;0;225;7;5;72;5168;4;19;21;382;606;20;6;0;3788;8;11;7;444;601;19;7;0;2374;6;1;443;11;8;1;2402;6;1;448;10;9;0;1269;6;1;472;7
03.12.17;15:30:00;1;499;8224;0;2;2;2294;3;11;396;9;3;2;1361;6;4;507;12;4;0;1885;3;0;230;7;5;70;5162;4;20;26;382;605;20;6;30;3788;1;11;18;526;502;19;7;0;2374;6;2;441;11;8;0;2402;6;2;444;10;9;0;1269;6;0;486;7
03.12.17;15:25:00;1;516;8182;0;2;2;2294;6;7;414;9;3;2;1361;6;4;520;12;4;0;1885;3;0;223;7;5;95;5156;4;32;32;382;606;20;6;57;3785;4;34;44;466;437;20;7;0;2374;6;0;479;11;8;2;2402;6;3;444;10;9;1;1269;6;1;511;8
03.12.17;15:20:00;1;995;8139;0;2;4;2293;6;8;415;9;3;0;1361;4;6;519;12;4;0;1885;3;0;209;7;5;106;5148;4;42;39;382;606;20;6;69;3780;4;35;44;466;438;20;7;3;2374;3;8;441;11;8;0;2402;6;0;496;10;9;2;1269;4;3;516;8
03.12.17;15:15:00;1;486;8071;0;2;5;2293;6;9;423;9;3;4;1361;6;13;507;12;4;6;1885;3;6;199;7;5;128;5139;4;57;47;382;606;20;6;84;3774;4;40;50;466;437;20;7;3;2374;6;7;485;11;8;5;2402;4;11;465;11;9;3;1269;3;11;484;8
03.12.17;15:10:00;1;516;8029;0;2;40;2293;6;59;377;10;3;4;1361;6;10;537;12;4;10;1885;3;10;199;7;5;154;5128;4;67;61;382;606;20;6;100;3767;4;49;58;466;438;20;7;3;2374;6;9;475;11;8;4;2402;6;9;488;11;9;0;1268;6;5;538;8
03.12.17;15:05:00;1;556;7985;0;2;56;2290;4;84;384;10;3;5;1360;6;10;548;12;4;18;1884;3;19;198;7;5;175;5115;4;81;69;382;606;20;6;116;3759;4;55;67;466;438;20;7;4;2374;6;10;496;11;8;12;2401;6;20;474;11;9;3;1268;6;5;552;8
03.12.17;15:00:00;1;578;7909;0;2;62;2285;4;88;371;10;3;5;1360;6;12;543;12;4;17;1882;3;18;198;7;5;173;5101;4;79;68;382;606;20;6;115;3749;4;69;83;466;438;20;7;7;2373;6;10;495;11;8;6;2400;6;12;496;11;9;3;1268;6;6;546;8
03.12.17;14:55:00;1;546;7862;0;2;61;2280;4;87;365;10;3;5;1360;6;10;548;12;4;16;1881;3;16;198;7;5;178;5086;4;77;68;382;606;20;6;115;3739;4;41;54;466;438;20;7;5;2373;6;10;501;11;8;6;2400;6;10;501;11;9;3;1268;6;6;554;8
03.12.17;14:50:00;1;1030;7816;0;2;65;2275;4;90;381;10;3;6;1359;4;12;542;12;4;20;1879;3;21;198;7;5;196;5071;4;91;73;382;606;20;6;123;3730;4;45;56;466;438;20;7;17;2372;4;24;466;12;8;36;2399;6;54;396;11;9;3;1268;4;7;547;8
03.12.17;14:45:00;1;536;7740;0;2;60;2269;4;86;385;10;3;14;1359;3;30;495;12;4;13;1878;3;13;198;7;5;177;5055;4;81;61;382;606;20;6;119;3719;4;56;64;466;438;20;7;6;2370;6;10;500;12;8;6;2397;6;10;503;11;9;6;1267;3;13;531;8
03.12.17;14:40:00;1;555;7695;0;2;64;2264;4;91;375;10;3;6;1357;6;13;545;12;4;16;1877;3;16;198;7;5;185;5040;4;87;71;382;606;20;6;120;3709;4;46;58;466;438;20;7;16;2370;6;23;455;12;8;24;2396;6;38;425;12;9;2;1267;6;8;548;8
03.12.17;14:35:00;1;544;7649;0;2;67;2259;4;95;382;10;3;5;1357;6;11;551;13;4;27;1876;3;28;198;7;5;191;5025;4;93;76;382;606;20;6;129;3699;4;68;79;466;438;20;7;44;2369;4;73;352;12;8;50;2394;4;75;360;12;9;3;1266;6;7;559;8
03.12.17;14:30:00;1;541;7575;0;2;54;2253;4;82;372;10;3;4;1356;6;11;540;13;4;14;1873;3;14;198;7;5;166;5009;4;76;64;382;606;20;6;108;3689;4;40;49;466;438;20;7;9;2365;4;12;496;12;8;14;2390;3;26;468;12;9;8;1266;6;15;517;9
03.12.17;14:25:00;1;305;7532;0;2;56;2249;4;83;380;10;3;5;1356;6;10;547;13;4;16;1872;3;16;198;8;5;173;4995;4;77;67;382;606;20;6;112;3680;4;49;57;466;438;20;7;14;2364;6;19;476;12;8;6;2389;6;10;501;12;9;2;1265;6;6;553;9
03.12.17;14:20:00;1;841;7484;0;2;62;2244;4;87;378;11;3;5;1356;4;11;538;13;4;18;1871;3;18;198;8;5;184;4980;4;86;70;382;606;20;6;121;3670;4;79;95;466;438;20;7;18;2363;6;27;454;13;8;24;2388;6;37;428;12;9;0;1265;6;0;575;9
03.12.17;14:15:00;1;263;7456;0;2;81;2239;4;106;366;11;3;13;1355;3;23;530;13;4;31;1869;3;32;198;8;5;220;4965;4;109;93;382;606;20;6;144;3660;4;64;72;466;438;20;7;51;2361;4;85;420;13;8;58;2386;4;89;445;12;9;9;1265;3;16;538;9
03.12.17;14:10:00;1;726;7434;0;2;103;2232;4;128;369;11;3;22;1354;6;37;542;13;4;58;1866;3;60;198;8;5;260;4946;4;129;111;382;606;20;6;172;3648;4;74;80;466;438;20;7;74;2357;4;104;412;13;8;77;2381;4;105;401;12;9;8;1264;6;13;560;9
03.12.17;14:05:00;1;265;7384;0;2;130;2224;4;160;381;11;3;72;1352;4;107;457;14;4;83;1862;3;87;199;8;5;315;4924;4;160;131;382;606;20;6;202;3633;4;93;97;466;438;20;7;115;2351;4;143;435;13;8;117;2375;4;147;432;12;9;32;1264;6;43;513;9
03.12.17;14:00:00;1;264;7362;0;2;139;2213;4;169;381;11;3;78;1346;4;114;469;14;4;93;1855;3;97;211;8;5;331;4898;4;171;141;382;606;20;6;218;3616;4;103;108;466;438;20;7;119;2342;4;162;427;13;8;135;2365;4;166;439;12;9;69;1261;4;94;453;10
03.12.17;13:55:00;1;273;7340;0;2;158;2201;4;187;384;11;3;91;1339;4;128;494;14;4;112;1847;5;116;226;8;5;376;4870;4;195;163;396;606;20;6;250;3598;4;124;137;466;466;20;7;149;2332;4;177;450;13;8;143;2354;4;176;406;13;9;81;1256;4;103;476;10
03.12.17;13:50:00;1;275;7292;0;2;192;2188;4;223;389;11;3;112;1332;4;153;512;14;4;138;1838;5;144;233;8;5;456;4838;4;223;199;400;634;20;6;341;3577;4;169;198;550;568;20;7;180;2319;4;207;425;13;8;178;2342;4;217;442;13;9;97;1249;4;123;492;10
03.12.17;13:45:00;1;283;7269;0;2;247;2172;4;281;400;11;3;146;1323;4;187;523;14;4;197;1826;5;205;237;8;5;554;4799;4;300;243;413;617;20;6;423;3548;4;205;221;581;567;20;7;229;2304;4;276;456;13;8;243;2327;4;274;451;13;9;130;1241;4;157;513;10
03.12.17;13:40:00;1;276;7246;0;2;289;2152;4;323;396;11;3;176;1310;4;216;506;14;4;234;1810;5;244;237;8;5;643;4752;4;318;278;421;673;20;6;482;3513;4;255;271;595;578;20;7;284;2285;4;316;469;13;8;285;2307;4;323;479;13;9;158;1230;4;183;521;10
03.12.17;13:35:00;1;307;7193;0;2;314;2128;4;350;400;11;3;194;1296;4;235;517;14;4;256;1790;5;267;244;8;5;702;4698;4;346;298;421;690;20;6;519;3472;4;244;255;592;580;20;7;311;2262;4;344;498;13;8;318;2283;4;358;490;13;9;175;1217;4;202;529;10
03.12.17;13:30:00;1;319;7168;0;2;317;2102;4;353;398;11;3;195;1280;4;236;520;14;4;259;1769;5;270;241;8;5;699;4640;4;342;296;422;703;20;6;518;3429;4;253;260;588;581;20;7;309;2236;4;353;488;13;8;316;2257;4;362;490;13;9;175;1203;4;203;530;10